{"data":{"norad_id":66800,"intl_designator":"2025-278K","name":"STARLINK-35996","alt_names":[],"object_type":"PAYLOAD","status":"ACTIVE","operator":null,"country":"US","launch_date":"2025-12-01","launch_site_code":"AFETR","launch_vehicle":null,"mission":null,"orbit_class":"UNKNOWN","rcs_meters":null,"size_class":null,"mass_kg":null,"dimensions":null,"purposes":["comms"],"wikipedia_slug":null,"has_3d_model":false,"image_url":null,"decayed_at":null,"tle_current":{"epoch":"2026-09-19T19:49:58.146816Z","epoch_age_seconds":144906,"freshness":"FRESH","line1":"1 66800U 25278K   26262.82636744  .00011584  00000+0  42984-3 0  9990","line2":"2 66800  42.9994  97.6486 0001126 273.6543  86.4180 15.27577258 44902","mean_motion":15.27577258,"eccentricity":0.0001126,"inclination_deg":42.9994,"raan_deg":97.6486,"arg_perigee_deg":273.6543,"mean_anomaly_deg":86.418,"bstar":0.00042984,"rev_number":4490,"period_min":94.266917922393,"perigee_km":482.28473610744,"apogee_km":483.82987706529,"semimajor_km":6861.1943065864,"source":"CELESTRAK","updated_at":"2026-09-21T09:00:36.015182Z"}}}